Flag for Germany Weather past 2 weeks in Peine, Lower Saxony, Germany

Now
45 °F

Partly sunny.


Feels Like: 41 °F
Forecast: 46 / 50 °F
Wind: 6 mph from Southwest

Location: Braunschweig

Current Time: Mar 28, 2015 at 10:47:32 AM

Latest Report: Mar 28, 2015 at 9:50 AM


Visibility: N/A

Pressure: 30.15 "Hg

Humidity: 87%

Dew point: 41 °F

Location of PeineLocation

Historic Weather in Peine — Graph

°F

Peine temperature yesterday

Maximum temperature yesterday: 46 °F (at 9:50 AM)
Minimum temperature yesterday: 41 °F (at 11:50 AM)
Average temperature yesterday: 44 °F

Past Weeks' High & Low Weather Summary

 TemperatureHumidityPressure
High61 °F (Mar 18, 3:20 PM)100% (Mar 14, 8:50 AM)30.45 "Hg (Mar 14, 8:50 AM)
Low27 °F (Mar 23, 6:50 AM)38% (Mar 19, 5:20 PM)29.65 "Hg (Mar 25, 4:20 PM)
Average45 °F76%30.12 "Hg
* Reported Mar 12 10:50 PM — Mar 27 9:50 PM, Peine, Weather by CustomWeather, © 2015

Note: Actual official high and low records may vary slightly from our data, if they occured in-between our weather recording intervals... More about our weather records

Advertising

Peine weather history for previous 24 hours

 ConditionsComfort  
Time TempWeatherWind HumidityBarometerVisibility
9:50 PM
Fri, Mar 27
43 °FLight rain. Overcast.15 mph100%30.09 "Hg5 mi
9:20 PM43 °FRain. Overcast.13 mph100%30.09 "Hg4 mi
8:50 PM43 °FOvercast.16 mph100%30.07 "Hg5 mi
8:20 PM43 °FMostly cloudy.12 mph100%30.07 "Hg6 mi
7:50 PM43 °FOvercast.12 mph100%30.04 "Hg6 mi
7:20 PM43 °FMostly cloudy.13 mph100%30.04 "HgN/A
6:50 PM43 °FMostly cloudy.14 mph100%30.01 "Hg5 mi
6:20 PM43 °FOvercast.14 mph100%30.01 "HgN/A
5:50 PM43 °FMore clouds than sun.12 mph100%29.98 "Hg6 mi
5:20 PM43 °FDrizzle. Overcast.14 mph100%29.98 "Hg3 mi
4:50 PM43 °FOvercast.13 mph100%29.95 "Hg5 mi
4:20 PM43 °FMore clouds than sun.13 mph100%29.95 "HgN/A
3:50 PM43 °FLight rain. Mostly cloudy.13 mph100%29.95 "Hg5 mi
3:20 PM43 °FLight rain. Mostly cloudy.16 mph100%29.95 "HgN/A
2:50 PM45 °FLight rain. Mostly cloudy.13 mph87%29.92 "HgN/A
2:20 PM46 °FMostly cloudy.17 mph76%29.92 "HgN/A
1:50 PM46 °FMore clouds than sun.16 mph82%29.92 "HgN/A
1:20 PM46 °FCloudy.16 mph82%29.92 "HgN/A
12:50 PM46 °FMostly cloudy.17 mph87%29.89 "HgN/A
12:20 PM45 °FOvercast.14 mph100%29.89 "HgN/A
11:50 AM41 °FMore clouds than sun.18 mph100%29.89 "HgN/A
11:20 AM46 °FSprinkles. Cloudy.14 mph76%29.89 "HgN/A
10:50 AM46 °FPartly sunny.15 mph76%29.86 "HgN/A
Weather by CustomWeather, © 2015

See weather overviewHow to use our weather pages